Tuesday, May 31, 2016
10:05 UTC
  |  Log In   |  Register Free
Airport Search:

Comanche County-City Airport
(KMKN)

Comanche County-City Airport Diagram
No Airport Diagram Available

FAA data valid effective Mar 31 2016 - May 26 2016 (unless otherwise noted).

 
 
 
 
 
 
 
 
 
 
 
 
 
 
Current Aviation Weather for KMKN

Weather Summary


The most recent METAR observation for MKN was updated at: 12:55 UTC
METAR for KMKN is not available. Closest METAR is for KBWD
KMKN  (most recent observation was updatred at 31:09 UTC)
310955Z AUTO 19007KT 10SM CLR 21/21 A2989 RMK AO2 T02060206

KBWD  (19.7 nm NE)   (most recent observation was updated at 31:09 UTC)
310955Z AUTO 16005KT 10SM OVC060 20/19 A2988 RMK AO2

KMNZ  (27.6 nm NW)   (most recent observation was updated at 31:09 UTC)
310955Z AUTO 17004KT 10SM CLR 21/21 A2990 RMK AO2 T02050205

TAF for KMKN is not available.
GlobalAir.com is loading additional information.
 Current Weather at MKN
70.0 F° (21.2 C°)

South winds at 5.8 mph
Pressure:
29.89 in
Humidity:
95%
Wind:
South at 5.8 mph
Dew Point:
68.5 F° (20.3 C°)
Visibility:
10.00 mi
MKN NOAA Radar




Find All Airport Services Find A Hotel Find A Rental Car Find A Golf Course Find A Restaurant $100 Hamburger



Airport Weather Forecast for KMKN

Translated METAR for KMKN (0955 UTC)
METAR:
KMKN 310955Z AUTO 19007KT 10SM CLR 21/21 A2989 RMK AO2 T02060206
Conditions at:
KMKN (Comanche County-City, TX) observed 0955 UTC 31 May 2016
Temperature:
21°C (69.8°F)
Dewpoint:
21°C (69.8°F) [RH = 100]
Pressure:
29.89 inches Hg (1012.2 mb)
Winds:
from the S (190 degrees) at 8.1 mph (7 knots: 3.6 m/s)
Visibility:
10 mile(s)
Ceiling:
at least 12,000 feet AGL
Clouds:
Clear below 12,000 feet AGL
Remarks:
site is un-manned
site is automated and HAS a precipitation sensor

Translated TAF for TAF for MKN is not available. Refer to local area forecast.
FBO's on the Field
FBO Company Facility Photos Services Transportation Aviation Fuel Prices: Prices include tax
Catering Weather Repair Courtesy Rental Type 100LL JetA JetA+ MOGAS 8087
 
Comanche County/City Airport

This FBO has not yet been rated
FS:Avfuel
Last Updated: Apr-28
Login to update fuel prices
SS:
Contact Comanche County/City AirportMore FBO Information
 
Add another FBO Facility Photos Catering Weather Repair Courtesy Rental Type 100LL JetA JetA+ MOGAS 8087
Services Transportation Aviation Fuel Prices: Prices include tax


model-print
model-print
model-print
model-print